Tracking 18980 objects as of 21-Feb-2018
HD Live streaming from Space Station
objects crossing your sky now

CZ-11 R/B

Track CZ-11 R/B now!
10-day predictions


NORAD ID: 43161
Int'l Code: 2018-008G
Perigee: 533.7 km
Apogee: 1,077.1 km
Inclination: 98.5 °
Period: 100.8 minutes
Semi major axis: 7176 km
RCS: Unknown
Launch date: January 19, 2018
Source: People's Republic of China (PRC)
Launch site: Jiuquan Satellite Launch Center, China (JSC)

Note: This is a ROCKET BODY
aabbcc
Your satellite tracking list
Your tracking list is empty




NASA's NSSDC Master Catalog

Two Line Element Set (TLE):
1 43161U 18008G   18051.94158364  .00000098  00000-0  28642-4 0  9990
2 43161  98.4823 128.0198 0378623 102.7840 261.5908 14.28056917  4683
Source of the keplerian elements: AFSPC